Time,TemperatureF,DewpointF,PressureIn,WindDirection,WindDirectionDegrees,WindSpeedMPH,WindSpeedGustMPH,Humidity,HourlyPrecipIn,Conditions,Clouds,dailyrainin,SolarRadiationWatts/m^2,SoftwareType,DateUTC
2013-09-15 00:03:00,-999.0,-99.9,-100.00,ESE,104,7.0,15.0,-999,-99.99,,,-99.99,0.000000,,2013-09-15 04:03:00,
2013-09-15 00:14:00,84.0,74.0,-100.00,ESE,104,7.0,15.0,73,0.00,,,0.01,0.000000,,2013-09-15 04:14:00,
2013-09-15 00:24:00,84.0,74.0,-100.00,ESE,104,7.0,15.0,73,0.00,,,0.01,0.000000,,2013-09-15 04:24:00,
2013-09-15 00:34:00,84.0,74.0,-100.00,ESE,104,7.0,15.0,73,0.00,,,0.01,0.000000,,2013-09-15 04:34:00,
2013-09-15 01:13:00,84.0,75.0,-100.00,ESE,102,6.0,14.0,74,0.00,,,0.01,0.000000,,2013-09-15 05:13:00,
2013-09-15 01:23:00,84.0,75.0,-100.00,ESE,102,6.0,14.0,74,0.00,,,0.01,0.000000,,2013-09-15 05:23:00,
2013-09-15 01:34:00,84.0,75.0,-100.00,ESE,102,6.0,14.0,74,0.00,,,0.01,0.000000,,2013-09-15 05:34:00,
2013-09-15 02:12:00,83.0,75.0,-100.00,SE,129,5.0,14.0,78,0.00,,,0.01,0.000000,,2013-09-15 06:12:00,
2013-09-15 02:21:00,83.0,75.0,-100.00,SE,129,5.0,14.0,78,0.00,,,0.01,0.000000,,2013-09-15 06:21:00,
2013-09-15 02:33:00,83.0,75.0,-100.00,SE,129,5.0,14.0,78,0.00,,,0.01,0.000000,,2013-09-15 06:33:00,
2013-09-15 03:11:00,83.0,76.0,-100.00,East,96,5.0,10.0,79,0.00,,,0.01,0.000000,,2013-09-15 07:11:00,
2013-09-15 03:22:00,83.0,76.0,-100.00,East,96,5.0,10.0,79,0.00,,,0.01,0.000000,,2013-09-15 07:22:00,
2013-09-15 03:33:00,83.0,76.0,-100.00,East,96,5.0,10.0,79,0.00,,,0.01,0.000000,,2013-09-15 07:33:00,
2013-09-15 04:11:00,83.0,75.0,-100.00,East,94,3.0,7.0,77,0.00,,,0.01,0.000000,,2013-09-15 08:11:00,
2013-09-15 04:22:00,83.0,75.0,-100.00,East,94,3.0,7.0,77,0.00,,,0.01,0.000000,,2013-09-15 08:22:00,
2013-09-15 04:32:00,83.0,75.0,-100.00,East,94,3.0,7.0,77,0.00,,,0.01,0.000000,,2013-09-15 08:32:00,
2013-09-15 05:12:00,83.0,75.0,-100.00,East,86,5.0,9.0,77,0.00,,,0.01,0.000000,,2013-09-15 09:12:00,
2013-09-15 05:22:00,83.0,75.0,-100.00,East,86,5.0,9.0,77,0.00,,,0.01,0.000000,,2013-09-15 09:22:00,
2013-09-15 05:33:00,83.0,75.0,-100.00,East,86,5.0,9.0,77,0.00,,,0.01,0.000000,,2013-09-15 09:33:00,
2013-09-15 06:13:00,83.0,75.0,-100.00,East,100,5.0,9.0,78,0.00,,,0.01,0.000000,,2013-09-15 10:13:00,
2013-09-15 06:23:00,83.0,75.0,-100.00,East,100,5.0,9.0,78,0.00,,,0.01,0.000000,,2013-09-15 10:23:00,
2013-09-15 06:32:00,83.0,75.0,-100.00,East,100,5.0,9.0,78,0.00,,,0.01,0.000000,,2013-09-15 10:32:00,
2013-09-15 07:12:00,83.0,76.0,-100.00,East,100,4.0,10.0,79,0.00,,,0.01,0.000000,,2013-09-15 11:12:00,
2013-09-15 07:22:00,83.0,76.0,-100.00,East,100,4.0,10.0,79,0.00,,,0.01,0.000000,,2013-09-15 11:22:00,
2013-09-15 07:33:00,83.0,76.0,-100.00,East,100,4.0,10.0,79,0.00,,,0.01,0.000000,,2013-09-15 11:33:00,
2013-09-15 08:12:00,83.0,75.0,-100.00,East,94,5.0,10.0,78,0.00,,,0.01,5.000000,,2013-09-15 12:12:00,
2013-09-15 08:21:00,83.0,75.0,-100.00,East,94,5.0,10.0,78,0.00,,,0.01,5.000000,,2013-09-15 12:21:00,
2013-09-15 08:32:00,83.0,75.0,-100.00,East,94,5.0,10.0,78,0.00,,,0.01,5.000000,,2013-09-15 12:32:00,
2013-09-15 09:11:00,84.0,75.0,-100.00,ESE,112,5.0,10.0,75,0.00,,,0.01,67.000000,,2013-09-15 13:11:00,
2013-09-15 09:22:00,84.0,75.0,-100.00,ESE,112,5.0,10.0,75,0.00,,,0.01,67.000000,,2013-09-15 13:22:00,
2013-09-15 09:32:00,84.0,75.0,-100.00,ESE,112,5.0,10.0,75,0.00,,,0.01,67.000000,,2013-09-15 13:32:00,
2013-09-15 10:12:00,85.0,76.0,-100.00,ESE,114,5.0,12.0,75,0.00,,,0.01,149.000000,,2013-09-15 14:12:00,
2013-09-15 10:22:00,85.0,76.0,-100.00,ESE,114,5.0,12.0,75,0.00,,,0.01,149.000000,,2013-09-15 14:22:00,
2013-09-15 15:22:00,75.0,72.0,-100.00,West,272,2.0,29.0,90,0.69,,,0.87,11.000000,,2013-09-15 19:22:00,
2013-09-15 15:32:00,75.0,72.0,-100.00,West,272,2.0,29.0,90,0.69,,,0.87,11.000000,,2013-09-15 19:32:00,
2013-09-15 16:11:00,74.0,71.0,-100.00,SSW,194,7.0,16.0,89,0.16,,,1.03,9.000000,,2013-09-15 20:11:00,
2013-09-15 16:22:00,74.0,71.0,-100.00,SSW,194,7.0,16.0,89,0.16,,,1.03,9.000000,,2013-09-15 20:22:00,
2013-09-15 16:32:00,74.0,71.0,-100.00,SSW,194,7.0,16.0,89,0.16,,,1.03,9.000000,,2013-09-15 20:32:00,
2013-09-15 17:11:00,73.0,71.0,-100.00,NNW,340,7.0,31.0,92,0.47,,,1.50,4.000000,,2013-09-15 21:11:00,
2013-09-15 17:22:00,73.0,71.0,-100.00,NNW,340,7.0,31.0,92,0.47,,,1.50,4.000000,,2013-09-15 21:22:00,
2013-09-15 17:34:00,73.0,71.0,-100.00,NNW,340,7.0,31.0,92,0.47,,,1.50,4.000000,,2013-09-15 21:34:00,
2013-09-15 18:14:00,74.0,72.0,-100.00,NNW,327,3.0,11.0,92,0.08,,,1.58,5.000000,,2013-09-15 22:14:00,
2013-09-15 18:23:00,74.0,72.0,-100.00,NNW,327,3.0,11.0,92,0.08,,,1.58,5.000000,,2013-09-15 22:23:00,
2013-09-15 18:33:00,74.0,72.0,-100.00,NNW,327,3.0,11.0,92,0.08,,,1.58,5.000000,,2013-09-15 22:33:00,
2013-09-15 19:12:00,75.0,73.0,-100.00,SSW,197,1.0,6.0,92,0.01,,,1.59,18.000000,,2013-09-15 23:12:00,
2013-09-15 19:22:00,75.0,73.0,-100.00,SSW,197,1.0,6.0,92,0.01,,,1.59,18.000000,,2013-09-15 23:22:00,
2013-09-15 19:33:00,75.0,73.0,-100.00,SSW,197,1.0,6.0,92,0.01,,,1.59,18.000000,,2013-09-15 23:33:00,
2013-09-15 20:11:00,75.0,73.0,-100.00,NE,52,2.0,3.0,93,0.01,,,1.60,10.000000,,2013-09-16 00:11:00,
2013-09-15 20:22:00,75.0,73.0,-100.00,NE,52,2.0,3.0,93,0.01,,,1.60,10.000000,,2013-09-16 00:22:00,
2013-09-15 20:32:00,75.0,73.0,-100.00,NE,52,2.0,3.0,93,0.01,,,1.60,10.000000,,2013-09-16 00:32:00,
2013-09-15 21:12:00,77.0,74.0,-100.00,NNE,18,4.0,7.0,92,0.00,,,1.60,0.000000,,2013-09-16 01:12:00,
2013-09-15 21:21:00,77.0,74.0,-100.00,NNE,18,4.0,7.0,92,0.00,,,1.60,0.000000,,2013-09-16 01:21:00,
2013-09-15 21:32:00,77.0,74.0,-100.00,NNE,18,4.0,7.0,92,0.00,,,1.60,0.000000,,2013-09-16 01:32:00,
2013-09-15 22:12:00,80.0,76.0,-100.00,NE,34,6.0,11.0,89,0.00,,,1.60,0.000000,,2013-09-16 02:12:00,
2013-09-15 22:22:00,80.0,76.0,-100.00,NE,34,6.0,11.0,89,0.00,,,1.60,0.000000,,2013-09-16 02:22:00,
2013-09-15 22:32:00,80.0,76.0,-100.00,NE,34,6.0,11.0,89,0.00,,,1.60,0.000000,,2013-09-16 02:32:00,
2013-09-15 23:11:00,80.0,76.0,-100.00,NE,50,8.0,13.0,89,0.00,,,1.60,0.000000,,2013-09-16 03:11:00,
2013-09-15 23:23:00,80.0,76.0,-100.00,NE,50,8.0,13.0,89,0.00,,,1.60,0.000000,,2013-09-16 03:23:00,
2013-09-15 23:34:00,80.0,76.0,-100.00,NE,50,8.0,13.0,89,0.00,,,1.60,0.000000,,2013-09-16 03:34:00,